| time (UTC) | temp F | wind direction | speed knots | gust knots | rain 1hr in | rain 24hr in | rain mn in | humidity % | barometer mb |
| 20260505080016 | 53 | 203 | 10.4 | 13.9 | 0.00 | 0.00 | 0.00 | 82 | 1011.1 |
| 20260505075516 | 53 | 203 | 10.4 | 13.0 | 0.00 | 0.00 | 0.00 | 82 | 1011.1 |
| 20260505075016 | 53 | 203 | 10.4 | 13.0 | 0.00 | 0.00 | 0.00 | 82 | 1011.1 |
| 20260505074536 | 53 | 203 | 9.6 | 12.2 | 0.00 | 0.00 | 0.00 | 81 | 1011.0 |
| 20260505074016 | 53 | 203 | 10.4 | 13.9 | 0.00 | 0.00 | 0.00 | 81 | 1011.1 |
| 20260505073517 | 53 | 203 | 10.4 | 12.2 | 0.00 | 0.00 | 0.00 | 81 | 1011.1 |
| 20260505073016 | 53 | 203 | 10.4 | 12.2 | 0.00 | 0.00 | 0.00 | 81 | 1011.1 |
| 20260505072516 | 53 | 203 | 10.4 | 12.2 | 0.00 | 0.00 | 0.00 | 81 | 1011.2 |
| 20260505072016 | 53 | 203 | 11.3 | 13.9 | 0.00 | 0.00 | 0.00 | 80 | 1011.1 |
| 20260505071516 | 53 | 203 | 12.2 | 15.6 | 0.00 | 0.00 | 0.00 | 80 | 1011.2 |
| 20260505071016 | 53 | 203 | 11.3 | 14.8 | 0.00 | 0.00 | 0.00 | 80 | 1011.2 |
| 20260505070516 | 53 | 203 | 11.3 | 15.6 | 0.00 | 0.00 | 0.00 | 79 | 1011.1 |
| 20260505070016 | 53 | 203 | 11.3 | 13.9 | 0.00 | 0.00 | 0.00 | 79 | 1011.1 |
| 20260505065657 | 54 | 203 | 11.3 | 13.9 | 0.00 | 0.00 | 0.00 | 79 | 1011.1 |
| 20260505065016 | 54 | 203 | 11.3 | 15.6 | 0.00 | 0.00 | 0.00 | 79 | 1011.1 |
| 20260505064516 | 54 | 203 | 11.3 | 13.9 | 0.00 | 0.00 | 0.00 | 79 | 1011.1 |
| 20260505064015 | 54 | 203 | 11.3 | 16.5 | 0.00 | 0.00 | 0.00 | 79 | 1011.1 |
| 20260505063517 | 54 | 203 | 11.3 | 13.9 | 0.00 | 0.00 | 0.00 | 79 | 1011.1 |
| 20260505063016 | 54 | 203 | 10.4 | 13.9 | 0.00 | 0.00 | 0.00 | 79 | 1011.1 |
| 20260505062536 | 54 | 203 | 9.6 | 13.0 | 0.00 | 0.00 | 0.00 | 79 | 1011.0 |
| 20260505062016 | 54 | 203 | 9.6 | 12.2 | 0.00 | 0.00 | 0.00 | 78 | 1011.0 |
| 20260505061516 | 54 | 203 | 9.6 | 13.0 | 0.00 | 0.00 | 0.00 | 79 | 1011.0 |
| 20260505061016 | 54 | 203 | 10.4 | 13.0 | 0.00 | 0.00 | 0.00 | 79 | 1011.1 |
| 20260505060515 | 54 | 203 | 10.4 | 13.9 | 0.00 | 0.00 | 0.00 | 78 | 1011.2 |
| 20260505060036 | 54 | 203 | 9.6 | 13.0 | 0.00 | 0.00 | 0.00 | 78 | 1011.3 |
| 20260505055517 | 54 | 203 | 8.7 | 11.3 | 0.00 | 0.00 | 0.00 | 78 | 1011.3 |
| 20260505055015 | 54 | 203 | 9.6 | 13.9 | 0.00 | 0.00 | 0.00 | 78 | 1011.2 |
| 20260505054515 | 54 | 203 | 10.4 | 13.0 | 0.00 | 0.00 | 0.00 | 78 | 1011.2 |
| 20260505054016 | 54 | 203 | 9.6 | 12.2 | 0.00 | 0.00 | 0.00 | 78 | 1011.2 |
| 20260505053516 | 54 | 203 | 10.4 | 13.9 | 0.00 | 0.00 | 0.00 | 78 | 1011.2 |
| 20260505053016 | 54 | 203 | 10.4 | 12.2 | 0.00 | 0.00 | 0.00 | 78 | 1011.2 |
| 20260505052516 | 54 | 203 | 9.6 | 13.0 | 0.00 | 0.00 | 0.00 | 78 | 1011.2 |
| 20260505052035 | 54 | 203 | 9.6 | 13.0 | 0.00 | 0.00 | 0.00 | 77 | 1011.3 |
| 20260505051516 | 54 | 203 | 11.3 | 14.8 | 0.00 | 0.00 | 0.00 | 77 | 1011.2 |
| 20260505051015 | 54 | 203 | 11.3 | 13.9 | 0.00 | 0.00 | 0.00 | 77 | 1011.3 |
| 20260505050516 | 54 | 203 | 11.3 | 14.8 | 0.00 | 0.00 | 0.00 | 77 | 1011.3 |
| 20260505041516 | 54 | 203 | 11.3 | 14.8 | 0.00 | 0.00 | 0.00 | 75 | 1011.3 |
| 20260505041015 | 55 | 203 | 11.3 | 14.8 | 0.00 | 0.00 | 0.00 | 75 | 1011.2 |
| 20260505040515 | 55 | 203 | 11.3 | 15.6 | 0.00 | 0.00 | 0.00 | 74 | 1011.3 |
| 20260505040056 | 55 | 203 | 11.3 | 14.8 | 0.00 | 0.00 | 0.00 | 74 | 1011.3 |
| 20260505035538 | 55 | 203 | 10.4 | 13.9 | 0.00 | 0.00 | 0.00 | 74 | 1011.3 |
| 20260505035016 | 55 | 203 | 11.3 | 16.5 | 0.00 | 0.00 | 0.00 | 73 | 1011.1 |
| 20260505034516 | 55 | 203 | 11.3 | 14.8 | 0.00 | 0.00 | 0.00 | 73 | 1011.2 |
| 20260505034017 | 55 | 203 | 12.2 | 15.6 | 0.00 | 0.00 | 0.00 | 73 | 1011.1 |
| 20260505033516 | 55 | 203 | 12.2 | 14.8 | 0.00 | 0.00 | 0.00 | 73 | 1011.2 |
| 20260505033016 | 55 | 203 | 12.2 | 14.8 | 0.00 | 0.00 | 0.00 | 72 | 1011.2 |
| 20260505032517 | 55 | 203 | 12.2 | 15.6 | 0.00 | 0.00 | 0.00 | 72 | 1011.2 |
| 20260505032017 | 55 | 203 | 12.2 | 15.6 | 0.00 | 0.00 | 0.00 | 72 | 1011.2 |
| 20260505031516 | 56 | 203 | 11.3 | 14.8 | 0.00 | 0.00 | 0.00 | 71 | 1011.1 |
| 20260505031016 | 56 | 203 | 11.3 | 15.6 | 0.00 | 0.00 | 0.00 | 71 | 1011.2 |
| 20260505030516 | 56 | 203 | 10.4 | 13.0 | 0.00 | 0.00 | 0.00 | 71 | 1011.2 |
| 20260505030017 | 56 | 203 | 11.3 | 15.6 | 0.00 | 0.00 | 0.00 | 70 | 1011.1 |
| 20260505025516 | 56 | 203 | 9.6 | 13.9 | 0.00 | 0.00 | 0.00 | 70 | 1011.2 |
| 20260505025016 | 56 | 203 | 10.4 | 13.9 | 0.00 | 0.00 | 0.00 | 70 | 1011.2 |
| 20260505024536 | 56 | 203 | 11.3 | 14.8 | 0.00 | 0.00 | 0.00 | 70 | 1011.1 |
| 20260505024017 | 56 | 203 | 12.2 | 15.6 | 0.00 | 0.00 | 0.00 | 70 | 1011.1 |
| 20260505023516 | 56 | 203 | 12.2 | 16.5 | 0.00 | 0.00 | 0.00 | 70 | 1011.2 |
| 20260505023016 | 56 | 203 | 13.0 | 17.4 | 0.00 | 0.00 | 0.00 | 70 | 1011.2 |
| 20260505022516 | 56 | 203 | 13.9 | 17.4 | 0.00 | 0.00 | 0.00 | 70 | 1011.2 |
| 20260505022017 | 56 | 203 | 11.3 | 15.6 | 0.00 | 0.00 | 0.00 | 70 | 1011.2 |
| 20260505021516 | 56 | 203 | 13.9 | 18.2 | 0.00 | 0.00 | 0.00 | 69 | 1011.2 |
| 20260505021016 | 56 | 203 | 15.6 | 20.0 | 0.00 | 0.00 | 0.00 | 69 | 1011.3 |
| 20260505020516 | 57 | 203 | 14.8 | 20.9 | 0.00 | 0.00 | 0.00 | 68 | 1011.2 |
| 20260505020017 | 57 | 203 | 13.0 | 18.2 | 0.00 | 0.00 | 0.00 | 67 | 1011.2 |
| 20260505015516 | 57 | 203 | 11.3 | 17.4 | 0.00 | 0.00 | 0.00 | 66 | 1011.1 |
| 20260505015016 | 58 | 203 | 10.4 | 13.9 | 0.00 | 0.00 | 0.00 | 65 | 1011.0 |
| 20260505014516 | 58 | 203 | 11.3 | 14.8 | 0.00 | 0.00 | 0.00 | 65 | 1010.9 |
| 20260505014017 | 59 | 203 | 10.4 | 13.0 | 0.00 | 0.00 | 0.00 | 64 | 1010.9 |
| 20260505013516 | 59 | 203 | 11.3 | 17.4 | 0.00 | 0.00 | 0.00 | 62 | 1010.7 |
| 20260505013016 | 59 | 203 | 11.3 | 16.5 | 0.00 | 0.00 | 0.00 | 61 | 1010.7 |
| 20260505012516 | 59 | 203 | 13.0 | 19.1 | 0.00 | 0.00 | 0.00 | 61 | 1010.6 |
| 20260505012017 | 59 | 203 | 13.0 | 19.1 | 0.00 | 0.00 | 0.00 | 61 | 1010.6 |
| 20260505011517 | 59 | 203 | 13.0 | 20.9 | 0.00 | 0.00 | 0.00 | 61 | 1010.4 |
| 20260505011036 | 59 | 203 | 13.9 | 20.9 | 0.00 | 0.00 | 0.00 | 61 | 1010.4 |
| 20260505010537 | 59 | 203 | 13.9 | 17.4 | 0.00 | 0.00 | 0.00 | 61 | 1010.3 |
| 20260505010057 | 59 | 203 | 14.8 | 21.7 | 0.00 | 0.00 | 0.00 | 61 | 1010.2 |
| 20260505005537 | 59 | 203 | 14.8 | 19.1 | 0.00 | 0.00 | 0.00 | 61 | 1010.1 |
| 20260505005017 | 60 | 203 | 15.6 | 19.1 | 0.00 | 0.00 | 0.00 | 60 | 1009.9 |
| 20260505004516 | 60 | 203 | 13.9 | 18.2 | 0.00 | 0.00 | 0.00 | 60 | 1009.8 |
| 20260505004016 | 60 | 203 | 14.8 | 20.0 | 0.00 | 0.00 | 0.00 | 59 | 1009.7 |
| 20260505003516 | 60 | 203 | 13.9 | 20.9 | 0.00 | 0.00 | 0.00 | 58 | 1009.6 |
| 20260505003016 | 60 | 203 | 13.0 | 19.1 | 0.00 | 0.00 | 0.00 | 59 | 1009.5 |
| 20260505002537 | 61 | 203 | 13.9 | 23.5 | 0.00 | 0.00 | 0.00 | 58 | 1009.4 |
| 20260505002016 | 61 | 203 | 17.4 | 23.5 | 0.00 | 0.00 | 0.00 | 58 | 1009.2 |
| 20260505001517 | 61 | 203 | 16.5 | 24.3 | 0.00 | 0.00 | 0.00 | 58 | 1009.0 |
| 20260505001017 | 61 | 203 | 17.4 | 25.2 | 0.00 | 0.00 | 0.00 | 58 | 1008.8 |
| 20260505000516 | 61 | 203 | 16.5 | 22.6 | 0.00 | 0.00 | 0.00 | 59 | 1008.9 |
| 20260505000016 | 61 | 203 | 19.1 | 24.3 | 0.00 | 0.00 | 0.00 | 59 | 1008.7 |
| 20260504235517 | 61 | 203 | 18.2 | 23.5 | 0.00 | 0.00 | 0.00 | 59 | 1008.7 |
| 20260504235016 | 61 | 203 | 20.0 | 26.9 | 0.00 | 0.00 | 0.00 | 59 | 1008.6 |
| 20260504234516 | 61 | 203 | 20.9 | 26.9 | 0.00 | 0.00 | 0.00 | 59 | 1008.5 |
| 20260504234016 | 61 | 203 | 20.0 | 26.1 | 0.00 | 0.00 | 0.00 | 58 | 1008.5 |
| 20260504233517 | 61 | 203 | 20.9 | 30.4 | 0.00 | 0.00 | 0.00 | 58 | 1008.4 |
| 20260504233016 | 62 | 203 | 18.2 | 26.9 | 0.00 | 0.00 | 0.00 | 58 | 1008.3 |
| 20260504232516 | 62 | 203 | 20.0 | 27.8 | 0.00 | 0.00 | 0.00 | 58 | 1008.2 |
| 20260504232016 | 62 | 203 | 19.1 | 26.1 | 0.00 | 0.00 | 0.00 | 58 | 1008.1 |
| 20260504231517 | 62 | 203 | 20.0 | 26.9 | 0.00 | 0.00 | 0.00 | 57 | 1008.1 |
| 20260504231016 | 63 | 203 | 20.9 | 27.8 | 0.00 | 0.00 | 0.00 | 57 | 1007.9 |
| 20260504230516 | 63 | 203 | 18.2 | 21.7 | 0.00 | 0.00 | 0.00 | 56 | 1007.7 |
| 20260504230016 | 63 | 203 | 17.4 | 24.3 | 0.00 | 0.00 | 0.00 | 57 | 1007.7 |
| 20260504225517 | 63 | 203 | 18.2 | 26.1 | 0.00 | 0.00 | 0.00 | 56 | 1007.6 |
| 20260504225016 | 63 | 203 | 20.0 | 25.2 | 0.00 | 0.00 | 0.00 | 55 | 1007.5 |
| 20260504224516 | 64 | 203 | 18.2 | 23.5 | 0.00 | 0.00 | 0.00 | 54 | 1007.6 |
| 20260504224016 | 64 | 203 | 16.5 | 21.7 | 0.00 | 0.00 | 0.00 | 54 | 1007.5 |
| 20260504223517 | 65 | 203 | 16.5 | 20.9 | 0.00 | 0.00 | 0.00 | 53 | 1007.4 |
| 20260504223016 | 65 | 203 | 17.4 | 23.5 | 0.00 | 0.00 | 0.00 | 52 | 1007.4 |
| 20260504222516 | 65 | 203 | 16.5 | 20.0 | 0.00 | 0.00 | 0.00 | 51 | 1007.3 |
| 20260504222016 | 66 | 203 | 17.4 | 25.2 | 0.00 | 0.00 | 0.00 | 48 | 1007.3 |
| 20260504221517 | 67 | 203 | 14.8 | 22.6 | 0.00 | 0.00 | 0.00 | 47 | 1007.2 |
| 20260504221016 | 68 | 203 | 12.2 | 16.5 | 0.00 | 0.00 | 0.00 | 45 | 1007.0 |
| 20260504220516 | 69 | 180 | 12.2 | 17.4 | 0.00 | 0.00 | 0.00 | 42 | 1007.0 |
| 20260504220016 | 71 | 180 | 7.8 | 11.3 | 0.00 | 0.00 | 0.00 | 39 | 1007.1 |
| 20260504215537 | 71 | 270 | 7.8 | 13.9 | 0.00 | 0.00 | 0.00 | 37 | 1007.0 |
| 20260504215015 | 71 | 225 | 7.0 | 12.2 | 0.00 | 0.00 | 0.00 | 36 | 1007.0 |
| 20260504214516 | 71 | 225 | 7.0 | 13.0 | 0.00 | 0.00 | 0.00 | 36 | 1007.1 |
| 20260504214015 | 72 | 225 | 11.3 | 16.5 | 0.00 | 0.00 | 0.00 | 36 | 1006.9 |
| 20260504213516 | 72 | 225 | 8.7 | 16.5 | 0.00 | 0.00 | 0.00 | 36 | 1007.0 |
| 20260504213016 | 72 | 225 | 9.6 | 17.4 | 0.00 | 0.00 | 0.00 | 35 | 1007.0 |
| 20260504212516 | 72 | 225 | 9.6 | 19.1 | 0.00 | 0.00 | 0.00 | 36 | 1007.0 |
| 20260504212016 | 72 | 225 | 11.3 | 19.1 | 0.00 | 0.00 | 0.00 | 35 | 1006.9 |
| 20260504211516 | 72 | 225 | 7.8 | 20.9 | 0.00 | 0.00 | 0.00 | 35 | 1007.0 |
| 20260504211016 | 72 | 225 | 9.6 | 20.0 | 0.00 | 0.00 | 0.00 | 34 | 1006.9 |
| 20260504210556 | 72 | 225 | 7.8 | 15.6 | 0.00 | 0.00 | 0.00 | 34 | 1006.9 |
| 20260504210016 | 72 | 225 | 7.0 | 14.8 | 0.00 | 0.00 | 0.00 | 36 | 1007.0 |
| 20260504205516 | 72 | 225 | 10.4 | 18.2 | 0.00 | 0.00 | 0.00 | 34 | 1007.1 |
| 20260504205016 | 73 | 225 | 11.3 | 20.0 | 0.00 | 0.00 | 0.00 | 34 | 1007.1 |
| 20260504204515 | 72 | 225 | 8.7 | 14.8 | 0.00 | 0.00 | 0.00 | 34 | 1007.1 |
| 20260504204015 | 72 | 225 | 7.8 | 15.6 | 0.00 | 0.00 | 0.00 | 34 | 1007.0 |
| 20260504203517 | 72 | 225 | 7.0 | 13.9 | 0.00 | 0.00 | 0.00 | 35 | 1007.1 |
| 20260504203016 | 72 | 248 | 7.0 | 15.6 | 0.00 | 0.00 | 0.00 | 35 | 1007.0 |
| 20260504202516 | 72 | 225 | 9.6 | 21.7 | 0.00 | 0.00 | 0.00 | 34 | 1007.1 |
| 20260504202036 | 72 | 225 | 11.3 | 21.7 | 0.00 | 0.00 | 0.00 | 35 | 1007.1 |
| 20260504201516 | 71 | 225 | 12.2 | 20.9 | 0.00 | 0.00 | 0.00 | 35 | 1007.2 |
| 20260504201015 | 71 | 225 | 8.7 | 16.5 | 0.00 | 0.00 | 0.00 | 35 | 1007.2 |
| 20260504200515 | 71 | 225 | 9.6 | 17.4 | 0.00 | 0.00 | 0.00 | 35 | 1007.3 |
| 20260504200015 | 71 | 225 | 9.6 | 19.1 | 0.00 | 0.00 | 0.00 | 34 | 1007.2 |
| 20260504195516 | 71 | 225 | 12.2 | 22.6 | 0.00 | 0.00 | 0.00 | 35 | 1007.3 |
| 20260504195036 | 71 | 225 | 13.0 | 22.6 | 0.00 | 0.00 | 0.00 | 34 | 1007.3 |
| 20260504194515 | 71 | 225 | 12.2 | 22.6 | 0.00 | 0.00 | 0.00 | 35 | 1007.3 |
| 20260504194016 | 71 | 225 | 7.8 | 14.8 | 0.00 | 0.00 | 0.00 | 35 | 1007.2 |
| 20260504193516 | 71 | 225 | 9.6 | 18.2 | 0.00 | 0.00 | 0.00 | 35 | 1007.3 |
| 20260504193035 | 71 | 225 | 10.4 | 21.7 | 0.00 | 0.00 | 0.00 | 35 | 1007.4 |
| 20260504192515 | 71 | 225 | 8.7 | 16.5 | 0.00 | 0.00 | 0.00 | 35 | 1007.3 |
| 20260504192016 | 71 | 225 | 8.7 | 13.9 | 0.00 | 0.00 | 0.00 | 36 | 1007.5 |
| 20260504191515 | 71 | 225 | 12.2 | 20.9 | 0.00 | 0.00 | 0.00 | 35 | 1007.2 |
| 20260504191015 | 70 | 225 | 9.6 | 19.1 | 0.00 | 0.00 | 0.00 | 36 | 1007.4 |
| 20260504190515 | 70 | 248 | 9.6 | 18.2 | 0.00 | 0.00 | 0.00 | 36 | 1007.4 |
| 20260504190016 | 70 | 225 | 13.0 | 22.6 | 0.00 | 0.00 | 0.00 | 35 | 1007.4 |
| 20260504185515 | 71 | 225 | 12.2 | 20.9 | 0.00 | 0.00 | 0.00 | 36 | 1007.4 |
| 20260504185016 | 70 | 225 | 10.4 | 19.1 | 0.00 | 0.00 | 0.00 | 37 | 1007.4 |
| 20260504184515 | 70 | 203 | 12.2 | 19.1 | 0.00 | 0.00 | 0.00 | 36 | 1007.5 |
| 20260504184016 | 70 | 270 | 10.4 | 21.7 | 0.00 | 0.00 | 0.00 | 37 | 1007.3 |
| 20260504183536 | 70 | 225 | 9.6 | 19.1 | 0.00 | 0.01 | 0.00 | 36 | 1007.3 |
| 20260504183015 | 70 | 248 | 7.8 | 14.8 | 0.00 | 0.01 | 0.00 | 35 | 1007.3 |
| 20260504182556 | 70 | 248 | 13.0 | 20.9 | 0.00 | 0.01 | 0.00 | 36 | 1007.4 |
| 20260504182036 | 70 | 225 | 11.3 | 22.6 | 0.00 | 0.01 | 0.00 | 37 | 1007.2 |
| 20260504181515 | 70 | 225 | 11.3 | 20.0 | 0.00 | 0.01 | 0.00 | 36 | 1007.6 |
| 20260504181015 | 70 | 225 | 11.3 | 23.5 | 0.00 | 0.01 | 0.00 | 37 | 1007.5 |
| 20260504180516 | 69 | 225 | 16.5 | 25.2 | 0.00 | 0.01 | 0.00 | 36 | 1007.6 |
| 20260504180015 | 69 | 203 | 16.5 | 25.2 | 0.00 | 0.01 | 0.00 | 36 | 1007.6 |
| 20260504175515 | 70 | 225 | 15.6 | 30.4 | 0.00 | 0.01 | 0.00 | 36 | 1007.7 |
| 20260504175015 | 70 | 225 | 7.8 | 16.5 | 0.00 | 0.01 | 0.00 | 36 | 1007.7 |
| 20260504174536 | 70 | 248 | 9.6 | 17.4 | 0.00 | 0.01 | 0.00 | 36 | 1007.8 |
| 20260504174015 | 70 | 225 | 10.4 | 21.7 | 0.00 | 0.01 | 0.00 | 36 | 1007.7 |
| 20260504173535 | 69 | 225 | 9.6 | 18.2 | 0.00 | 0.01 | 0.00 | 38 | 1007.9 |
| 20260504173015 | 70 | 248 | 8.7 | 17.4 | 0.00 | 0.01 | 0.00 | 37 | 1007.8 |
| 20260504172515 | 69 | 225 | 8.7 | 17.4 | 0.00 | 0.01 | 0.00 | 36 | 1007.9 |
| 20260504172035 | 69 | 225 | 10.4 | 19.1 | 0.00 | 0.01 | 0.00 | 38 | 1007.7 |
| 20260504171535 | 69 | 225 | 12.2 | 18.2 | 0.00 | 0.01 | 0.00 | 37 | 1007.7 |
| 20260504171015 | 69 | 225 | 11.3 | 22.6 | 0.00 | 0.01 | 0.00 | 38 | 1007.7 |
| 20260504170556 | 69 | 225 | 11.3 | 20.9 | 0.00 | 0.01 | 0.00 | 37 | 1007.8 |
| 20260504151018 | 67 | 225 | 12.2 | 22.6 | 0.00 | 0.03 | 0.00 | 41 | 1009.1 |
| 20260504150518 | 67 | 225 | 7.8 | 15.6 | 0.00 | 0.03 | 0.00 | 41 | 1009.2 |
| 20260504141037 | 65 | 225 | 7.8 | 17.4 | 0.00 | 0.03 | 0.00 | 44 | 1009.7 |
| 20260504140517 | 64 | 248 | 6.1 | 13.0 | 0.00 | 0.03 | 0.00 | 46 | 1009.9 |
| 20260504130517 | 60 | 225 | 8.7 | 18.2 | 0.00 | 0.03 | 0.00 | 51 | 1010.5 |
| 20260504110516 | 50 | 203 | 5.2 | 8.7 | 0.00 | 0.03 | 0.00 | 63 | 1011.3 |
| 20260504100516 | 48 | 203 | 5.2 | 7.8 | 0.00 | 0.03 | 0.00 | 64 | 1011.2 |
| 20260504081516 | 48 | 225 | 5.2 | 9.6 | 0.00 | 0.03 | 0.00 | 62 | 1010.9 |
| 20260504081016 | 48 | 225 | 5.2 | 9.6 | 0.00 | 0.03 | 0.00 | 62 | 1010.9 |
| 20260504080517 | 48 | 225 | 4.3 | 10.4 | 0.00 | 0.03 | 0.00 | 62 | 1010.9 |